Theta_e
341 338 338 340 343 345 346 346 346 345 345 344 343 341 344 340 335 335 338 340 340 341 341 341 341 342 343 343 346 343 342 342 344 345 346 346 346 346 345 345 345 344 344
342 345 344 344 344 346 346 346 346 346 344 341 338 340 340 338 335 337 338 340 340 340 340 340 340 342 346 344 344 344 344 346 347 346 344 343 344 345 346 347 345 343 342
347 346 346 345 347 347 348 346 344 347 347 342 339 339 340 337 339 337 338 339 339 340 343 343 342 341 348 345 343 344 346 345 346 346 346 345 345 345 345 346 344 343 343
348 346 344 345 346 347 346 345 345 346 344 341 340 340 340 337 339 342 341 343 344 344 345 346 347 342 347 345 344 345 345 345 346 346 346 345 345 344 344 344 344 343 343
346 343 345 346 346 347 346 346 348 347 341 340 339 341 340 341 342 342 343 344 344 344 346 348 349 349 344 345 346 348 347 345 346 346 344 343 343 345 345 345 342 344 343
346 344 345 345 345 343 344 346 350 346 344 343 340 342 342 341 343 342 342 345 345 346 347 348 346 348 343 342 345 348 347 345 345 343 343 343 344 347 346 343 344 344 343
344 345 343 344 342 342 344 345 352 349 346 348 344 343 342 341 341 338 338 343 345 347 348 346 346 344 340 343 340 348 345 344 342 343 345 344 347 348 344 344 344 344 344
344 342 344 343 341 340 344 347 349 349 350 349 348 345 340 341 341 337 337 340 343 346 348 346 347 348 347 348 349 346 344 343 347 348 348 349 348 344 343 344 343 344 344
346 346 347 342 336 344 346 349 347 347 348 352 349 346 341 342 335 338 337 336 338 345 347 350 349 344 341 347 347 345 343 343 352 353 348 346 344 343 343 343 345 345 346
349 346 346 346 337 343 348 348 344 345 348 349 348 344 340 337 336 334 335 338 342 336 337 349 349 348 347 347 348 343 343 343 343 346 347 346 345 346 348 348 346 345 345
348 349 347 347 341 341 347 349 348 345 348 348 350 344 341 341 337 335 333 336 343 341 340 344 349 350 348 348 345 344 343 343 343 343 344 345 346 349 347 347 346 346 344
347 349 349 347 344 342 340 339 349 350 347 340 349 353 350 348 345 340 334 339 342 343 344 342 349 349 348 347 345 343 342 342 343 343 344 345 345 344 342 344 344 344 343
346 348 348 349 349 346 348 345 350 349 348 351 350 350 352 350 351 346 347 344 342 345 344 341 339 341 345 349 342 343 341 341 341 342 342 341 339 336 333 331 331 333 338
346 347 346 348 350 349 348 348 348 348 351 351 350 351 352 351 351 350 349 347 342 344 345 343 340 348 350 348 342 342 340 340 340 338 336 334 331 329 328 326 327 328 330
346 347 345 348 349 350 350 348 347 350 350 351 350 351 351 350 350 351 349 348 346 343 340 344 342 346 347 347 342 340 339 337 335 333 330 330 328 325 321 319 320 322 324
346 347 347 348 346 349 349 350 350 348 348 349 349 349 352 350 349 351 348 345 347 347 341 347 345 346 342 345 342 339 337 334 332 330 329 327 325 316 310 309 310 311 313
347 347 348 348 347 346 348 349 350 350 351 350 350 350 351 350 348 350 351 350 350 348 345 348 350 348 344 345 340 339 334 332 331 330 325 323 313 309 308 306 305 306 306
347 346 348 348 348 348 348 349 350 350 350 351 350 349 349 350 348 350 352 350 349 349 348 345 349 349 348 344 341 337 332 329 329 327 321 313 312 311 307 304 303 303 303
348 348 348 348 348 348 349 348 348 350 351 351 351 350 351 349 349 349 351 350 350 350 348 348 347 349 347 346 339 332 329 328 328 325 321 313 315 310 308 304 302 302 303
348 348 349 349 349 349 349 349 349 350 350 350 352 352 350 350 350 350 348 349 349 351 349 349 348 348 348 345 338 333 328 327 326 321 317 316 311 310 309 304 302 303 305
348 347 347 347 350 349 349 349 349 350 350 351 351 351 351 352 351 351 351 350 349 349 349 348 349 348 347 342 336 337 332 329 324 321 321 311 310 313 307 304 302 303 306
347 347 347 348 349 350 349 349 351 352 351 352 352 349 351 351 351 351 350 350 349 349 349 348 348 347 347 347 344 341 334 325 320 320 320 315 312 309 308 307 304 303 306
348 348 348 348 349 349 349 349 349 350 351 351 350 350 351 350 350 350 350 350 350 350 349 349 348 348 348 346 346 345 341 335 332 332 321 317 312 309 307 307 307 305 303
347 348 348 349 349 348 350 350 350 351 352 351 351 351 352 350 350 348 348 348 348 348 348 346 343 343 343 343 344 344 343 340 337 336 327 317 314 307 306 308 308 308 308
348 349 347 347 348 349 350 350 350 351 350 350 349 349 350 350 350 349 349 348 348 346 344 342 341 339 338 339 338 338 339 337 325 321 319 320 313 308 306 307 307 308 308
347 347 347 348 349 349 349 350 350 349 349 348 348 348 348 348 348 347 347 347 346 342 336 331 329 324 321 324 327 331 335 330 318 313 317 319 313 310 309 306 307 309 307
Wind_Speed
5 3 3 3 4 6 6 5 7 6 4 2 6 7 6 5 5 6 5 5 7 8 8 8 8 9 9 8 7 6 5 7 7 7 8 8 8 9 8 8 7 8 9
5 5 6 6 6 4 2 1 3 3 3 4 4 8 7 5 5 5 4 5 10 11 11 12 10 9 8 6 4 4 5 6 9 9 8 8 8 9 9 7 7 8 9
4 3 2 0 4 5 4 2 1 5 5 1 5 5 6 5 2 4 6 8 12 11 13 13 11 9 6 4 3 4 6 8 7 7 8 9 9 8 7 5 4 6 8
6 4 3 2 2 2 2 2 3 3 2 6 6 5 6 7 3 5 7 11 12 9 9 10 9 4 4 3 3 6 7 8 8 9 10 10 9 8 5 3 3 5 8
7 4 5 5 4 2 0 2 1 1 6 6 5 6 5 5 1 2 7 7 11 11 5 6 5 0 2 3 5 9 9 10 10 11 12 11 9 5 2 2 3 6 9
7 6 4 3 4 3 2 4 4 3 6 6 4 2 3 3 1 1 1 3 9 7 2 2 4 1 2 2 7 11 10 10 10 13 14 11 4 3 3 3 4 7 10
8 6 5 6 5 3 3 3 6 9 5 2 7 3 6 6 4 4 2 1 2 1 4 1 2 2 0 5 8 9 10 10 10 13 11 6 5 6 6 5 8 10 12
9 8 6 6 5 6 2 3 6 7 7 4 2 5 1 3 7 3 2 2 2 3 3 4 4 3 3 5 6 7 9 9 10 9 9 8 9 8 7 7 8 8 10
9 7 6 4 7 6 4 4 6 6 5 6 3 3 2 3 2 8 7 0 1 5 6 3 9 2 3 2 5 6 6 8 7 7 8 8 8 7 6 7 8 9 10
12 10 7 4 9 5 7 5 6 7 5 4 4 5 3 2 2 2 4 6 6 4 1 4 7 1 4 1 2 4 5 7 6 5 5 8 8 7 8 7 8 9 10
13 12 8 7 7 7 9 6 6 7 5 6 4 3 3 3 2 2 2 3 2 4 4 2 1 6 4 1 2 4 5 6 4 3 3 4 6 7 7 7 8 8 9
16 14 14 10 9 8 12 6 4 4 3 1 2 2 1 1 2 2 1 4 4 1 2 1 5 7 5 3 3 4 5 4 4 4 4 4 5 6 6 7 8 9 9
18 17 15 13 11 9 8 8 6 4 3 2 1 1 0 2 3 2 1 1 2 4 3 3 4 11 12 7 3 2 2 3 3 3 3 5 6 6 6 6 7 8 9
19 16 17 15 15 11 11 11 8 7 6 6 5 5 3 1 2 1 1 1 2 2 4 4 4 6 9 7 5 3 1 1 1 2 4 4 5 6 6 7 7 8 8
22 19 17 16 16 14 13 11 11 10 10 10 8 8 7 4 3 5 6 2 2 1 3 4 4 9 9 7 7 6 4 3 1 2 3 4 5 6 7 7 8 8 9
15 19 19 18 19 18 15 13 11 11 10 12 12 10 9 5 3 5 7 6 7 6 2 3 7 6 12 12 11 8 7 6 4 2 2 3 4 5 5 6 6 6 6
16 18 20 23 24 23 17 16 16 15 15 13 10 11 11 9 9 8 7 6 6 7 4 3 5 7 15 15 12 10 9 8 7 4 2 3 3 3 4 5 5 5 4
20 19 19 17 18 24 19 18 19 18 18 17 15 15 14 11 10 9 9 9 9 8 6 6 8 11 13 15 12 12 12 10 9 7 4 3 3 3 4 4 4 3 3
21 20 20 18 17 18 19 22 21 19 19 19 17 17 15 14 14 13 12 13 13 12 11 10 7 12 16 14 17 16 14 13 12 9 7 6 3 3 3 4 4 4 6
26 24 23 24 22 20 19 22 22 21 19 19 19 17 17 18 18 16 16 15 13 15 14 14 12 12 11 13 21 21 18 17 15 13 11 9 8 4 2 3 4 6 10
30 26 26 28 27 25 24 22 21 20 19 18 18 19 19 18 17 16 15 13 13 15 16 16 14 11 10 10 23 23 23 19 18 19 16 13 11 9 6 5 6 7 9
34 32 31 28 28 27 25 22 23 22 19 19 21 20 18 16 16 15 16 15 14 15 17 17 17 16 18 18 19 25 23 16 7 23 21 18 14 11 9 8 9 9 9
31 30 29 30 30 28 24 21 20 20 19 19 19 21 19 15 13 13 14 16 16 17 17 17 17 18 17 14 15 21 25 24 18 12 28 21 20 15 12 11 11 10 8
28 30 29 31 31 30 26 21 20 20 20 18 16 14 15 15 15 16 17 16 15 13 13 13 14 15 15 15 14 12 17 20 19 13 23 12 24 17 16 15 12 11 10
27 29 29 29 28 25 24 23 21 20 20 20 18 17 18 18 19 19 19 18 16 14 12 12 11 10 10 10 9 9 12 14 4 4 23 4 15 15 18 14 12 10 8
16 21 23 22 24 24 25 24 21 19 19 18 16 15 18 19 19 16 18 21 20 16 12 7 5 2 2 5 5 6 8 12 5 5 3 6 15 9 3 12 10 9 4
Wind_Direction
178 173 193 242 285 297 300 304 312 312 323 294 242 235 242 243 231 214 214 258 273 289 305 319 330 331 328 333 344 2 356 341 345 337 331 325 312 304 304 310 319 327 325
216 264 246 272 315 327 305 290 341 343 356 16 31 206 216 228 232 232 258 290 300 302 311 317 322 335 337 334 355 8 1 355 345 344 341 345 336 324 314 315 326 331 337
199 161 172 129 71 63 68 69 91 326 275 175 117 124 176 189 291 278 292 293 299 317 326 328 316 323 337 349 1 7 355 356 3 353 352 352 350 340 322 312 324 337 343
179 146 166 163 100 66 70 138 218 309 158 184 159 155 165 207 290 304 300 302 311 307 324 329 326 310 336 359 343 351 356 352 344 338 339 337 335 336 332 336 347 353 348
161 165 130 138 137 143 209 163 336 255 204 210 189 154 167 215 276 339 320 320 321 314 332 328 354 256 46 348 347 354 355 342 335 330 329 326 333 351 25 53 29 5 4
184 180 166 143 173 195 154 115 61 135 211 240 221 183 176 217 264 248 306 346 328 325 336 60 47 117 334 343 341 359 340 337 334 335 332 328 350 54 83 66 35 16 18
197 203 242 225 206 187 144 126 101 109 121 205 213 112 122 158 149 146 154 112 323 284 146 143 101 34 241 323 359 350 347 345 347 349 356 25 70 82 78 55 30 21 13
203 211 195 204 226 198 184 157 134 127 103 122 161 122 82 236 215 148 180 190 28 45 277 267 173 134 33 347 359 352 345 348 8 15 46 69 79 79 61 34 24 15 17
207 198 205 197 200 201 200 161 146 147 118 68 159 180 94 233 298 219 228 245 347 95 60 79 162 168 276 0 357 336 347 4 29 40 72 78 80 72 49 21 18 26 33
205 212 195 208 191 191 174 162 130 133 121 155 85 85 108 136 170 348 217 253 328 255 253 135 191 292 147 14 335 331 357 19 28 40 69 78 70 56 47 36 33 28 36
207 210 214 216 198 190 181 159 149 132 131 95 97 123 112 81 78 116 296 328 261 32 151 117 136 184 155 196 319 339 6 27 24 29 53 64 64 62 55 52 46 41 38
211 211 218 220 220 224 201 224 177 149 129 219 102 89 81 121 233 168 178 274 309 284 357 199 146 191 208 221 290 337 359 22 0 7 10 43 53 52 43 55 52 46 45
213 219 218 217 227 216 214 212 217 197 186 186 212 268 171 24 355 274 249 328 332 330 322 319 257 227 236 222 251 305 350 41 23 45 46 48 47 41 40 35 34 35 45
230 228 223 225 226 222 219 224 232 233 242 240 244 239 206 215 230 65 82 133 342 317 301 269 263 213 198 217 233 234 194 104 63 50 40 48 50 38 30 30 35 35 32
241 231 231 229 229 234 234 234 233 234 249 251 245 245 246 225 219 205 202 217 185 231 278 261 240 220 209 219 212 213 190 176 140 98 53 29 30 25 26 27 30 34 36
232 237 236 236 233 234 237 239 237 239 248 247 251 255 254 246 255 243 248 242 236 215 223 254 225 256 213 210 208 204 202 186 172 145 62 40 39 31 27 25 26 32 39
232 238 236 242 244 229 235 239 239 244 248 248 251 250 250 261 275 269 260 268 264 243 220 237 221 220 199 213 211 209 207 198 190 178 129 101 80 50 34 29 29 29 39
231 242 247 238 230 222 231 240 245 243 245 248 254 256 258 261 259 265 270 261 258 252 256 259 227 201 209 218 223 218 210 204 204 196 173 151 112 82 59 51 55 56 45
224 230 227 234 227 232 239 239 239 240 245 247 253 257 261 264 266 264 273 263 262 253 248 248 252 221 221 221 213 209 214 214 215 209 200 180 155 136 84 65 59 76 85
227 227 228 233 236 238 245 244 245 248 248 249 253 258 267 264 267 271 272 271 282 248 243 243 241 229 226 228 218 210 211 216 217 213 211 201 186 165 118 104 93 104 107
235 238 240 234 235 240 244 247 244 245 249 255 257 260 264 267 267 267 271 279 272 248 239 246 243 239 224 206 210 219 222 222 219 219 215 204 193 186 161 125 122 134 127
240 241 239 239 240 240 243 247 247 246 250 254 258 261 258 261 259 256 264 266 268 263 256 251 254 244 242 234 233 226 217 204 227 225 220 210 205 198 174 144 129 133 145
247 241 241 242 243 244 244 243 245 249 253 257 264 264 254 253 256 253 256 259 256 256 259 265 267 269 272 252 237 229 228 223 222 223 209 209 208 203 178 154 132 124 138
249 246 243 243 243 249 246 246 246 245 245 251 260 267 252 251 252 249 250 251 250 252 258 262 267 271 271 266 259 245 236 238 236 226 202 192 205 199 182 162 149 129 112
240 252 245 248 247 245 249 250 248 242 239 248 254 250 249 245 250 253 251 245 240 247 258 257 259 269 277 286 284 263 240 220 192 195 192 211 190 180 179 174 162 143 121
241 238 243 241 242 243 241 242 240 238 237 240 247 246 247 248 253 250 253 246 236 235 226 213 206 212 316 339 303 262 250 209 148 128 191 188 157 138 134 180 183 143 217